Time,TemperatureF,DewpointF,PressureIn,WindDirection,WindDirectionDegrees,WindSpeedMPH,WindSpeedGustMPH,Humidity,HourlyPrecipIn,Conditions,Clouds,dailyrainin,SolarRadiationWatts/m^2,SoftwareType,DateUTC
2013-02-10 00:00:00,30.0,18.0,-100.00,SW,229,3.0,6.0,62,-99.99,,,-99.99,-0.200000,,2013-02-10 08:00:00,
2013-02-10 00:52:00,30.0,18.0,-100.00,SW,229,3.0,6.0,62,-99.99,,,-99.99,-0.200000,,2013-02-10 08:52:00,
2013-02-10 01:00:00,29.0,19.0,-100.00,West,271,3.0,4.0,65,-99.99,,,0.00,-0.200000,,2013-02-10 09:00:00,
2013-02-10 01:52:00,29.0,19.0,-100.00,West,271,3.0,4.0,65,-99.99,,,0.00,-0.200000,,2013-02-10 09:52:00,
2013-02-10 02:00:00,28.0,18.0,-100.00,South,185,3.0,4.0,66,-99.99,,,-99.99,-0.200000,,2013-02-10 10:00:00,
2013-02-10 02:52:00,28.0,18.0,-100.00,South,185,3.0,4.0,66,-99.99,,,-99.99,-0.200000,,2013-02-10 10:52:00,
2013-02-10 03:00:00,28.0,18.0,-100.00,SW,218,3.0,4.0,67,-99.99,,,-99.99,-0.200000,,2013-02-10 11:00:00,
2013-02-10 03:52:00,28.0,18.0,-100.00,SW,218,3.0,4.0,67,-99.99,,,-99.99,-0.200000,,2013-02-10 11:52:00,
2013-02-10 04:00:00,28.0,19.0,-100.00,South,178,1.0,4.0,67,-99.99,,,-99.99,-0.200000,,2013-02-10 12:00:00,
2013-02-10 04:52:00,28.0,19.0,-100.00,South,178,1.0,4.0,67,-99.99,,,-99.99,-0.200000,,2013-02-10 12:52:00,
2013-02-10 05:00:00,29.0,17.0,-100.00,South,189,2.0,3.0,59,-99.99,,,-99.99,-0.200000,,2013-02-10 13:00:00,
2013-02-10 05:52:00,29.0,17.0,-100.00,South,189,2.0,3.0,59,-99.99,,,-99.99,-0.200000,,2013-02-10 13:52:00,
2013-02-10 06:00:00,29.0,16.0,-100.00,SSE,164,2.0,3.0,57,-99.99,,,0.00,-0.200000,,2013-02-10 14:00:00,
2013-02-10 06:52:00,29.0,16.0,-100.00,SSE,164,2.0,3.0,57,-99.99,,,0.00,-0.200000,,2013-02-10 14:52:00,
2013-02-10 07:00:00,29.0,16.0,-100.00,SSE,163,2.0,4.0,57,-99.99,,,0.00,-0.200000,,2013-02-10 15:00:00,
2013-02-10 07:52:00,29.0,16.0,-100.00,SSE,163,2.0,4.0,57,-99.99,,,0.00,-0.200000,,2013-02-10 15:52:00,
2013-02-10 08:00:00,30.0,16.0,-100.00,West,278,2.0,4.0,56,-99.99,,,-99.99,20.400000,,2013-02-10 16:00:00,
2013-02-10 08:52:00,30.0,16.0,-100.00,West,278,2.0,4.0,56,-99.99,,,-99.99,20.400000,,2013-02-10 16:52:00,
2013-02-10 09:00:00,33.0,16.0,-100.00,WNW,285,1.0,3.0,50,-99.99,,,-99.99,60.900002,,2013-02-10 17:00:00,
2013-02-10 09:52:00,33.0,16.0,-100.00,WNW,285,1.0,3.0,50,-99.99,,,-99.99,60.900002,,2013-02-10 17:52:00,
2013-02-10 10:00:00,36.0,16.0,-100.00,West,265,2.0,3.0,44,-99.99,,,-99.99,207.699997,,2013-02-10 18:00:00,
2013-02-10 10:52:00,36.0,16.0,-100.00,West,265,2.0,3.0,44,-99.99,,,-99.99,207.699997,,2013-02-10 18:52:00,
2013-02-10 11:00:00,36.0,17.0,-100.00,NNW,347,2.0,3.0,45,-99.99,,,0.00,437.100006,,2013-02-10 19:00:00,
2013-02-10 11:52:00,36.0,17.0,-100.00,NNW,347,2.0,3.0,45,-99.99,,,0.00,437.100006,,2013-02-10 19:52:00,
2013-02-10 12:00:00,35.0,20.0,-100.00,North,3,2.0,3.0,54,-99.99,,,-99.99,508.399994,,2013-02-10 20:00:00,
2013-02-10 12:52:00,35.0,20.0,-100.00,North,3,2.0,3.0,54,-99.99,,,-99.99,508.399994,,2013-02-10 20:52:00,
2013-02-10 13:00:00,36.0,21.0,-100.00,NW,316,2.0,3.0,54,-99.99,,,0.00,482.000000,,2013-02-10 21:00:00,
2013-02-10 13:52:00,36.0,21.0,-100.00,NW,316,2.0,3.0,54,-99.99,,,0.00,482.000000,,2013-02-10 21:52:00,
2013-02-10 14:00:00,38.0,23.0,-100.00,WSW,254,2.0,3.0,53,-99.99,,,0.00,212.100006,,2013-02-10 22:00:00,
2013-02-10 14:52:00,38.0,23.0,-100.00,WSW,254,2.0,3.0,53,-99.99,,,0.00,212.100006,,2013-02-10 22:52:00,
2013-02-10 15:00:00,36.0,19.0,-100.00,NW,321,1.0,2.0,48,-99.99,,,0.00,359.299988,,2013-02-10 23:00:00,
2013-02-10 15:52:00,36.0,19.0,-100.00,NW,321,1.0,2.0,48,-99.99,,,0.00,359.299988,,2013-02-10 23:52:00,
2013-02-10 16:00:00,37.0,22.0,-100.00,SE,129,1.0,2.0,55,-99.99,,,0.00,206.800003,,2013-02-11 00:00:00,
2013-02-10 16:52:00,37.0,22.0,-100.00,SE,129,1.0,2.0,55,-99.99,,,0.00,206.800003,,2013-02-11 00:52:00,
2013-02-10 17:00:00,33.0,20.0,-100.00,North,-999,-999.0,-999.0,59,-99.99,,,0.00,,,2013-02-11 01:00:00,
2013-02-10 17:52:00,33.0,20.0,-100.00,North,-999,-999.0,-999.0,59,-99.99,,,0.00,,,2013-02-11 01:52:00,
2013-02-10 18:00:00,34.0,22.0,-100.00,SW,217,2.0,4.0,63,-99.99,,,0.00,2.000000,,2013-02-11 02:00:00,
2013-02-10 18:52:00,34.0,22.0,-100.00,SW,217,2.0,4.0,63,-99.99,,,0.00,2.000000,,2013-02-11 02:52:00,
2013-02-10 19:00:00,33.0,20.0,-100.00,SSW,205,2.0,5.0,60,-99.99,,,0.00,-0.200000,,2013-02-11 03:00:00,
2013-02-10 19:52:00,33.0,20.0,-100.00,SSW,205,2.0,5.0,60,-99.99,,,0.00,-0.200000,,2013-02-11 03:52:00,
2013-02-10 20:00:00,33.0,22.0,-100.00,SW,218,3.0,5.0,63,-99.99,,,0.00,-0.200000,,2013-02-11 04:00:00,
2013-02-10 20:52:00,33.0,22.0,-100.00,SW,218,3.0,5.0,63,-99.99,,,0.00,-0.200000,,2013-02-11 04:52:00,
2013-02-10 21:00:00,34.0,21.0,-100.00,ESE,122,3.0,5.0,59,-99.99,,,0.00,-0.200000,,2013-02-11 05:00:00,
2013-02-10 21:52:00,34.0,21.0,-100.00,ESE,122,3.0,5.0,59,-99.99,,,0.00,-0.200000,,2013-02-11 05:52:00,
2013-02-10 23:00:00,38.0,12.0,-100.00,North,-999,-999.0,-999.0,35,-99.99,,,0.00,,,2013-02-11 07:00:00,
2013-02-10 23:52:00,38.0,12.0,-100.00,North,-999,-999.0,-999.0,35,-99.99,,,0.00,,,2013-02-11 07:52:00,